Regional Weather Roundup
Issued by NWS

Home | Current Version | Previous Version | Graphics & Text | Print | Product List | Glossary On
Versions: 1 2 3 4 5 6 7 8 9 10 11 12 13 14 15 16 17 18 19 20 21 22 23 24 25 26 27 28 29 30 31 32 33 34 35 36 37 38 39 40 41 42 43 44 45 46 47 48 49 50
000
ASUS43 KBIS 220010
RWRND

NORTH DAKOTA REGIONAL WEATHER ROUNDUP
NATIONAL WEATHER SERVICE BISMARCK ND
700 PM CDT SUN SEP 21 2014

NOTE: "FAIR" INDICATES FEW OR NO CLOUDS BELOW 12,000 FEET WITH NO
SIGNIFICANT WEATHER AND/OR OBSTRUCTIONS TO VISIBILITY.


NDZ001>003-009>011-017-220100-
NORTHWEST NORTH DAKOTA

CITY           SKY/WX    TMP DP  RH WIND       PRES   REMARKS
WILLISTON      CLEAR     71  34  25 S3        30.18F
6HR MIN TEMP:  68; 6HR MAX TEMP:  73;

MINOT          CLEAR     68  40  35 SW6       30.18S
MINOT AFB      CLEAR     70  42  35 W5        30.17S
$$

NDZ018>021-031>035-040>046-220100-
SOUTHWEST NORTH DAKOTA

CITY           SKY/WX    TMP DP  RH WIND       PRES   REMARKS
BISMARCK       CLEAR     71  43  36 CALM      30.22S
6HR MIN TEMP:  69; 6HR MAX TEMP:  75;

DICKINSON      CLEAR     70  38  31 NE3       30.21F
GARRISON         N/A     66  44  45 SW8       30.20S
6HR MIN TEMP:  66; 6HR MAX TEMP:  72;

HETTINGER ARPT CLEAR     70  35  27 SE3       30.24F
$$

NDZ004>008-012>016-024-026-027-054-220100-
NORTHEAST NORTH DAKOTA

CITY           SKY/WX    TMP DP  RH WIND       PRES   REMARKS
GRAND FORKS    PTCLDY    64  49  57 E5        30.19R
GRND FRKS AFB  CLEAR     63  52  67 SE5       30.19S
DEVILS LAKE    CLEAR     66  46  48 SW6       30.18S
$$

NDZ022-023-025-028>030-036>039-047>053-220100-
SOUTHEAST NORTH DAKOTA

CITY           SKY/WX    TMP DP  RH WIND       PRES   REMARKS
FARGO          CLEAR     62  51  67 E7        30.20S
6HR MIN TEMP:  61; 6HR MAX TEMP:  68;

JAMESTOWN      CLEAR     64  48  56 W5        30.20S
$$



USA.gov is the U.S. government's official web portal to all federal, state and local government web resources and services.